RYR4QZ BKPR-LHBP

Flight info

Callsign RYR4QZ
Flight time 0h 41m
Altitude 20000
Route UDVAR1D UDVAR M749 BGD M173 PARAK
Aircraft B738/M-SDE2E3FGHIRWXY/LB1

Departure

Time 2026-04-26 15:41
Airport Priština Adem Jashari International Airport (BKPR)

Arrival

Time 2026-04-26 16:22
Airport Budapest Liszt Ferenc International Airport (LHBP)
Time Latitude Longitude Altitude Speed Heading
2026-04-26 15:18 42.57506 21.03112 1786 ft 0 kts 266°
2026-04-26 15:32 42.57507 21.03132 1786 ft 4 kts 265°
2026-04-26 15:32 42.57509 21.03163 1786 ft 4 kts 268°
2026-04-26 15:33 42.57506 21.03197 1785 ft 4 kts 299°
2026-04-26 15:33 42.57488 21.03220 1784 ft 4 kts 343°
2026-04-26 15:33 42.57465 21.03226 1785 ft 1 kts 355°
2026-04-26 15:35 42.57473 21.03225 1783 ft 4 kts 355°
2026-04-26 15:36 42.57517 21.03220 1784 ft 9 kts 356°
2026-04-26 15:36 42.57585 21.03250 1785 ft 11 kts 53°
2026-04-26 15:36 42.57548 21.03316 1786 ft 11 kts 171°
2026-04-26 15:36 42.57476 21.03325 1785 ft 11 kts 175°
2026-04-26 15:37 42.57391 21.03333 1785 ft 14 kts 176°
2026-04-26 15:37 42.57282 21.03344 1786 ft 18 kts 175°
2026-04-26 15:37 42.57151 21.03358 1784 ft 19 kts 175°
2026-04-26 15:37 42.57022 21.03371 1785 ft 18 kts 175°
2026-04-26 15:38 42.56897 21.03384 1782 ft 18 kts 175°
2026-04-26 15:38 42.56777 21.03396 1780 ft 17 kts 175°
2026-04-26 15:38 42.56661 21.03408 1782 ft 16 kts 176°
2026-04-26 15:38 42.56540 21.03420 1781 ft 19 kts 176°
2026-04-26 15:39 42.56399 21.03433 1782 ft 20 kts 176°
2026-04-26 15:39 42.55967 21.03480 1793 ft 18 kts 175°
2026-04-26 15:39 42.55805 21.03553 1797 ft 17 kts 99°
2026-04-26 15:39 42.55809 21.03646 1798 ft 10 kts 85°
2026-04-26 15:40 42.55855 21.03734 1798 ft 10 kts 359°
2026-04-26 15:40 42.55925 21.03727 1795 ft 10 kts 354°
2026-04-26 15:40 42.56114 21.03708 1793 ft 60 kts 356°
2026-04-26 15:40 42.56775 21.03640 1782 ft 128 kts 355°
2026-04-26 15:41 42.57828 21.03543 1964 ft 165 kts 358°
2026-04-26 15:41 42.59008 21.03419 2737 ft 169 kts 356°
2026-04-26 15:41 42.60233 21.03293 3367 ft 189 kts 355°
2026-04-26 15:41 42.61647 21.03144 3615 ft 216 kts 355°
2026-04-26 15:42 42.63172 21.02926 4183 ft 225 kts 347°
2026-04-26 15:42 42.64569 21.01898 4772 ft 241 kts 317°
2026-04-26 15:42 42.65601 21.00023 5560 ft 245 kts 304°
2026-04-26 15:42 42.66497 20.98108 6667 ft 240 kts 305°
2026-04-26 15:43 42.67426 20.96182 7444 ft 245 kts 305°
2026-04-26 15:43 42.68362 20.94254 8302 ft 246 kts 305°
2026-04-26 15:43 42.77643 20.74334 14419 ft 306 kts 304°
2026-04-26 15:44 42.83751 20.62214 17180 ft 342 kts 304°
2026-04-26 15:44 42.98073 20.32469 22244 ft 398 kts 304°
2026-04-26 15:44 43.10674 20.06078 25758 ft 423 kts 304°
2026-04-26 15:45 43.36333 19.51087 32106 ft 432 kts 302°
2026-04-26 15:45 43.49022 19.23559 34994 ft 420 kts 302°
2026-04-26 15:46 43.55965 19.12271 35738 ft 426 kts 339°
2026-04-26 15:46 43.58876 19.11510 36029 ft 428 kts 354°
2026-04-26 15:46 43.62828 19.11086 36071 ft 433 kts 352°
2026-04-26 15:47 43.99906 19.01532 36024 ft 420 kts 346°
2026-04-26 15:48 44.05609 18.99831 36104 ft 421 kts 346°
2026-04-26 15:48 44.08472 18.98996 36379 ft 419 kts 346°
2026-04-26 15:48 44.11345 18.98169 36313 ft 425 kts 346°
2026-04-26 15:49 44.16212 18.96785 36198 ft 425 kts 346°
2026-04-26 15:49 44.43163 18.89146 36084 ft 428 kts 347°
2026-04-26 15:50 44.89646 18.75783 36117 ft 425 kts 346°
2026-04-26 15:50 45.16119 18.66841 36130 ft 421 kts 338°
2026-04-26 15:51 45.21625 18.64022 36138 ft 421 kts 339°
2026-04-26 15:51 45.27321 18.61373 36145 ft 422 kts 341°
2026-04-26 15:52 45.32965 18.58949 36139 ft 424 kts 341°
2026-04-26 15:52 45.38624 18.56571 36145 ft 425 kts 341°
2026-04-26 15:53 45.44306 18.54180 36139 ft 426 kts 341°
2026-04-26 15:53 45.49933 18.51801 36111 ft 419 kts 341°
2026-04-26 15:53 45.52710 18.50626 35789 ft 413 kts 341°
2026-04-26 15:54 45.55443 18.49467 35470 ft 407 kts 341°
2026-04-26 15:54 45.58151 18.48316 35099 ft 404 kts 341°
2026-04-26 15:54 45.60839 18.47172 34735 ft 401 kts 341°
2026-04-26 15:54 45.63504 18.46037 34371 ft 399 kts 341°
2026-04-26 15:55 45.66156 18.44907 33983 ft 396 kts 341°
2026-04-26 15:55 45.68794 18.43782 33591 ft 394 kts 341°
2026-04-26 15:55 45.71405 18.42668 33210 ft 391 kts 341°
2026-04-26 15:55 45.74041 18.41763 32832 ft 390 kts 349°
2026-04-26 15:56 45.76742 18.41481 32476 ft 389 kts 359°
2026-04-26 15:56 45.79439 18.41739 32134 ft 387 kts
2026-04-26 15:56 45.82115 18.42083 31782 ft 385 kts
2026-04-26 15:56 45.84773 18.42441 31437 ft 382 kts
2026-04-26 15:57 45.87414 18.42795 31088 ft 380 kts
2026-04-26 15:57 45.90036 18.43137 30768 ft 377 kts
2026-04-26 15:57 45.92648 18.43469 30424 ft 375 kts
2026-04-26 15:57 45.94366 18.43684 30194 ft 374 kts
2026-04-26 15:58 45.97813 18.44110 29676 ft 370 kts
2026-04-26 15:58 46.00334 18.44419 29338 ft 366 kts
2026-04-26 15:58 46.02858 18.44727 28982 ft 362 kts
2026-04-26 15:58 46.05359 18.45033 28631 ft 359 kts
2026-04-26 15:59 46.07837 18.45335 28296 ft 355 kts
2026-04-26 15:59 46.10296 18.45636 27954 ft 353 kts
2026-04-26 15:59 46.12742 18.45934 27608 ft 352 kts
2026-04-26 15:59 46.15176 18.46231 27273 ft 350 kts
2026-04-26 16:00 46.17595 18.46527 26929 ft 348 kts
2026-04-26 16:00 46.20000 18.46822 26607 ft 345 kts
2026-04-26 16:00 46.22384 18.47114 26276 ft 343 kts
2026-04-26 16:00 46.24753 18.47405 25942 ft 340 kts
2026-04-26 16:01 46.27109 18.47695 25612 ft 338 kts
2026-04-26 16:01 46.29442 18.47982 25302 ft 336 kts
2026-04-26 16:01 46.31762 18.48267 24975 ft 333 kts
2026-04-26 16:01 46.34068 18.48551 24656 ft 331 kts
2026-04-26 16:02 46.36327 18.48830 24345 ft 329 kts
2026-04-26 16:02 46.38606 18.49111 24030 ft 327 kts
2026-04-26 16:02 46.40870 18.49391 23713 ft 325 kts
2026-04-26 16:02 46.42389 18.49579 23456 ft 324 kts
2026-04-26 16:03 46.45346 18.49944 23032 ft 320 kts
2026-04-26 16:03 46.47557 18.50218 22708 ft 317 kts
2026-04-26 16:03 46.49740 18.50489 22423 ft 313 kts
2026-04-26 16:03 46.51904 18.50758 22105 ft 311 kts
2026-04-26 16:04 46.54049 18.51024 21810 ft 308 kts
2026-04-26 16:04 46.56176 18.51288 21501 ft 306 kts
2026-04-26 16:04 46.58299 18.51551 21209 ft 306 kts
2026-04-26 16:04 46.60420 18.51814 20902 ft 306 kts
2026-04-26 16:05 46.62545 18.52078 20607 ft 306 kts
2026-04-26 16:05 46.64664 18.52341 20296 ft 306 kts
2026-04-26 16:05 46.66790 18.52606 19999 ft 306 kts
2026-04-26 16:05 46.68905 18.52870 19694 ft 304 kts
2026-04-26 16:06 46.71010 18.53134 19421 ft 302 kts
2026-04-26 16:06 46.73074 18.53707 19087 ft 308 kts 20°
2026-04-26 16:06 46.74858 18.55443 18703 ft 311 kts 37°
2026-04-26 16:06 46.76331 18.57714 18160 ft 314 kts 44°
2026-04-26 16:07 46.77729 18.60174 17588 ft 314 kts 45°
2026-04-26 16:07 46.79097 18.62654 17058 ft 312 kts 45°
2026-04-26 16:07 46.80454 18.65119 16534 ft 311 kts 45°
2026-04-26 16:07 46.81809 18.67570 16038 ft 309 kts 45°
2026-04-26 16:08 46.83157 18.69993 15551 ft 307 kts 45°
2026-04-26 16:08 46.84048 18.71589 15226 ft 305 kts 45°
2026-04-26 16:08 46.85840 18.74788 14593 ft 303 kts 45°
2026-04-26 16:08 46.87173 18.77166 14126 ft 301 kts 45°
2026-04-26 16:09 46.88503 18.79535 13626 ft 300 kts 45°
2026-04-26 16:09 46.89823 18.81887 13150 ft 297 kts 45°
2026-04-26 16:09 46.91129 18.84216 12694 ft 294 kts 45°
2026-04-26 16:09 46.92420 18.86519 12225 ft 292 kts 45°
2026-04-26 16:10 46.93699 18.88802 11793 ft 288 kts 44°
2026-04-26 16:10 46.94963 18.91060 11400 ft 284 kts 44°
2026-04-26 16:10 46.96189 18.93252 11027 ft 280 kts 44°
2026-04-26 16:10 46.97413 18.95441 10626 ft 277 kts 44°
2026-04-26 16:11 46.98630 18.97618 10214 ft 274 kts 44°
2026-04-26 16:11 46.99835 18.99775 9772 ft 272 kts 44°
2026-04-26 16:11 47.01029 19.01914 9337 ft 270 kts 44°
2026-04-26 16:11 47.02209 19.04029 8924 ft 266 kts 45°
2026-04-26 16:12 47.03373 19.06120 8519 ft 263 kts 45°
2026-04-26 16:12 47.04526 19.08191 8120 ft 261 kts 45°
2026-04-26 16:12 47.06783 19.12250 7395 ft 253 kts 46°
2026-04-26 16:13 47.07879 19.14224 7112 ft 247 kts 46°
2026-04-26 16:13 47.08972 19.16191 6859 ft 249 kts 46°
2026-04-26 16:13 47.10067 19.18161 6625 ft 249 kts 46°
2026-04-26 16:13 47.11158 19.20128 6364 ft 248 kts 47°
2026-04-26 16:14 47.12231 19.22067 6102 ft 247 kts 47°
2026-04-26 16:14 47.13310 19.24017 5851 ft 245 kts 47°
2026-04-26 16:14 47.15464 19.27913 5352 ft 243 kts 47°
2026-04-26 16:15 47.16512 19.29811 5106 ft 242 kts 46°
2026-04-26 16:15 47.17570 19.31727 4856 ft 241 kts 46°
2026-04-26 16:15 47.18624 19.33637 4595 ft 240 kts 46°
2026-04-26 16:16 47.20734 19.37467 4147 ft 238 kts 47°
2026-04-26 16:16 47.21776 19.39360 4044 ft 238 kts 47°
2026-04-26 16:16 47.22863 19.41183 3997 ft 232 kts 39°
2026-04-26 16:16 47.24056 19.42779 3787 ft 231 kts 37°
2026-04-26 16:17 47.25241 19.44331 3781 ft 222 kts 38°
2026-04-26 16:17 47.26378 19.45838 3807 ft 219 kts 39°
2026-04-26 16:17 47.27518 19.47357 3941 ft 224 kts 37°
2026-04-26 16:17 47.28845 19.48445 3946 ft 216 kts
2026-04-26 16:18 47.30243 19.48050 3866 ft 208 kts 329°
2026-04-26 16:18 47.32408 19.45324 3366 ft 201 kts 319°
2026-04-26 16:19 47.34247 19.42459 2830 ft 179 kts 316°
2026-04-26 16:19 47.35059 19.41137 2598 ft 169 kts 316°
2026-04-26 16:19 47.36308 19.39109 2229 ft 154 kts 316°
2026-04-26 16:20 47.37226 19.37619 1983 ft 143 kts 317°
2026-04-26 16:20 47.38549 19.35476 1587 ft 141 kts 316°
2026-04-26 16:20 47.39191 19.34432 1400 ft 134 kts 316°
2026-04-26 16:21 47.39806 19.33436 1208 ft 128 kts 315°
2026-04-26 16:21 47.40406 19.32466 1062 ft 130 kts 314°
2026-04-26 16:21 47.41020 19.31473 878 ft 131 kts 313°
2026-04-26 16:21 47.41635 19.30468 691 ft 133 kts 312°
2026-04-26 16:22 47.42268 19.29440 525 ft 137 kts 312°
2026-04-26 16:22 47.42893 19.28424 456 ft 123 kts 314°
2026-04-26 16:22 47.43402 19.27599 466 ft 91 kts 312°
2026-04-26 16:22 47.43687 19.27125 471 ft 25 kts 302°
2026-04-26 16:23 47.43750 19.26873 467 ft 21 kts 282°
2026-04-26 16:23 47.43780 19.26679 458 ft 16 kts 282°
2026-04-26 16:23 47.43800 19.26538 458 ft 9 kts 280°
2026-04-26 16:23 47.43798 19.26491 457 ft 3 kts 247°
2026-04-26 16:24 47.43785 19.26467 457 ft 6 kts 226°
2026-04-26 16:24 47.43731 19.26391 455 ft 14 kts 222°
2026-04-26 16:24 47.43653 19.26364 455 ft 8 kts 138°
2026-04-26 16:24 47.43622 19.26387 456 ft 5 kts 212°
2026-04-26 16:25 47.43597 19.26357 455 ft 5 kts 221°
2026-04-26 16:25 47.43592 19.26350 456 ft 2 kts 221°
2026-04-26 16:25 47.43590 19.26347 456 ft 0 kts 222°